Tillbaka till svenska Fidonet
English   Information   Debug  
FILM   0/18
FNEWS_PUBLISH   4178
FN_SYSOP   41525
FN_SYSOP_OLD1   71952
FTP_FIDO   0/2
FTSC_PUBLIC   0/13569
FUNNY   0/4886
GENEALOGY.EUR   0/71
GET_INFO   105
GOLDED   0/408
HAM   0/16052
HOLYSMOKE   0/6791
HOT_SITES   0/1
HTMLEDIT   0/71
HUB203   466
HUB_100   264
HUB_400   39
HUMOR   0/29
IC   0/2851
INTERNET   0/424
INTERUSER   0/3
IP_CONNECT   719
JAMNNTPD   0/233
JAMTLAND   0/47
KATTY_KORNER   0/41
LAN   0/16
LINUX-USER   0/19
LINUXHELP   0/1155
LINUX   0/22010
LINUX_BBS   0/957
mail   18.68
mail_fore_ok   249
MENSA   0/341
MODERATOR   0/102
MONTE   0/992
MOSCOW_OKLAHOMA   0/1245
MUFFIN   0/783
MUSIC   0/321
N203_STAT   898
N203_SYSCHAT   313
NET203   321
NET204   69
NET_DEV   0/10
NORD.ADMIN   0/101
NORD.CHAT   0/2572
NORD.FIDONET   189
NORD.HARDWARE   0/28
NORD.KULTUR   0/114
NORD.PROG   0/32
NORD.SOFTWARE   0/88
NORD.TEKNIK   0/58
NORD   0/453
OCCULT_CHAT   0/93
OS2BBS   0/787
OS2DOSBBS   0/580
OS2HW   0/42
OS2INET   0/37
OS2LAN   0/134
OS2PROG   0/36
OS2REXX   0/113
OS2USER-L   207
OS2   0/4784
OSDEBATE   0/18996
PASCAL   0/490
PERL   0/457
PHP   0/45
POINTS   0/405
POLITICS   0/29554
POL_INC   0/14731
PSION   103
R20_ADMIN   1117
R20_AMATORRADIO   0/2
R20_BEST_OF_FIDONET   13
R20_CHAT   0/893
R20_DEPP   0/3
R20_DEV   399
R20_ECHO2   1379
R20_ECHOPRES   0/35
R20_ESTAT   0/719
R20_FIDONETPROG...
...RAM.MYPOINT
  0/2
R20_FIDONETPROGRAM   0/22
R20_FIDONET   0/248
R20_FILEFIND   0/24
R20_FILEFOUND   0/22
R20_HIFI   0/3
R20_INFO2   2736
R20_INTERNET   0/12940
R20_INTRESSE   0/60
R20_INTR_KOM   0/99
R20_KANDIDAT.CHAT   42
R20_KANDIDAT   28
R20_KOM_DEV   112
R20_KONTROLL   0/13050
R20_KORSET   0/18
R20_LOKALTRAFIK   0/24
R20_MODERATOR   0/1852
R20_NC   76
R20_NET200   245
R20_NETWORK.OTH...
...ERNETS
  0/13
R20_OPERATIVSYS...
...TEM.LINUX
  0/44
R20_PROGRAMVAROR   0/1
R20_REC2NEC   534
R20_SFOSM   0/340
R20_SF   0/108
R20_SPRAK.ENGLISH   0/1
R20_SQUISH   107
R20_TEST   2
R20_WORST_OF_FIDONET   12
RAR   0/9
RA_MULTI   106
RA_UTIL   0/162
REGCON.EUR   0/2055
REGCON   0/13
SCIENCE   0/1206
SF   0/239
SHAREWARE_SUPPORT   0/5146
SHAREWRE   0/14
SIMPSONS   0/169
STATS_OLD1   0/2539.065
STATS_OLD2   0/2530
STATS_OLD3   0/2395.095
STATS_OLD4   0/1692.25
SURVIVOR   0/495
SYSOPS_CORNER   0/3
SYSOP   0/84
TAGLINES   0/112
TEAMOS2   0/4530
TECH   0/2617
TEST.444   0/105
TRAPDOOR   0/19
TREK   0/755
TUB   0/290
UFO   0/40
UNIX   0/1316
USA_EURLINK   0/102
USR_MODEMS   0/1
VATICAN   0/2740
VIETNAM_VETS   0/14
VIRUS   0/378
VIRUS_INFO   0/201
VISUAL_BASIC   0/473
WHITEHOUSE   0/5187
WIN2000   0/101
WIN32   0/30
WIN95   0/4276
WIN95_OLD1   0/70272
WINDOWS   0/1517
WWB_SYSOP   0/419
WWB_TECH   0/810
ZCC-PUBLIC   0/1
ZEC   4

 
4DOS   0/134
ABORTION   0/7
ALASKA_CHAT   0/506
ALLFIX_FILE   0/1313
ALLFIX_FILE_OLD1   0/7997
ALT_DOS   0/152
AMATEUR_RADIO   0/1039
AMIGASALE   0/14
AMIGA   0/331
AMIGA_INT   0/1
AMIGA_PROG   0/20
AMIGA_SYSOP   0/26
ANIME   0/15
ARGUS   0/924
ASCII_ART   0/340
ASIAN_LINK   0/651
ASTRONOMY   0/417
AUDIO   0/92
AUTOMOBILE_RACING   0/105
BABYLON5   0/17862
BAG   135
BATPOWER   0/361
BBBS.ENGLISH   0/382
BBSLAW   0/109
BBS_ADS   0/5290
BBS_INTERNET   0/507
BIBLE   0/3563
BINKD   0/1119
BINKLEY   0/215
BLUEWAVE   0/2173
CABLE_MODEMS   0/25
CBM   0/46
CDRECORD   0/66
CDROM   0/20
CLASSIC_COMPUTER   0/378
COMICS   0/15
CONSPRCY   0/899
COOKING   28145
COOKING_OLD1   0/24719
COOKING_OLD2   0/40862
COOKING_OLD3   0/37489
COOKING_OLD4   0/35496
COOKING_OLD5   9370
C_ECHO   0/189
C_PLUSPLUS   0/31
DIRTY_DOZEN   0/201
DOORGAMES   0/2006
DOS_INTERNET   0/196
duplikat   6000
ECHOLIST   0/18295
EC_SUPPORT   0/318
ELECTRONICS   0/359
ELEKTRONIK.GER   1534
ENET.LINGUISTIC   0/13
ENET.POLITICS   0/4
ENET.SOFT   0/11701
ENET.SYSOP   33794
ENET.TALKS   0/32
ENGLISH_TUTOR   0/2000
EVOLUTION   0/1335
FDECHO   0/217
FDN_ANNOUNCE   0/7068
FIDONEWS   23490
FIDONEWS_OLD1   0/49742
FIDONEWS_OLD2   0/35949
FIDONEWS_OLD3   0/30874
FIDONEWS_OLD4   0/37224
FIDO_SYSOP   12841
FIDO_UTIL   0/180
FILEFIND   0/209
FILEGATE   0/212
Möte HAM, 16052 texter
 lista första sista föregående nästa
Text 2588, 745 rader
Skriven 2008-10-30 23:00:20 av Amsat List (1:323/120.0)
Ärende: [keps]  orb08304.amsa
=============================
[keps]  orb08304.amsa

Return-Path: <keps-bounces@amsat.org>
X-Rcpt: craig.healy@chowda.com
X-UIDL: 1225424554.58667

SB KEPS @ AMSAT  $ORB08304.O
Orbital Elements  08304.OSCAR

HR AMSAT ORBITAL ELEMENTS FOR OSCAR SATELLITES
FROM WA5QGD FORT WORTH,TX October 30, 2008
Send Subscribe/unsubscribe to KEPS at 
http://www.amsat.org/mailman/listinfo/keps
BID: ORB08304.O
TO ALL RADIO AMATEURS BT

Satellite: AO-07
Catalog number: 07530
Epoch time:      08303.60786392
Element set:     313
Inclination:      101.4544 deg
RA of node:       330.5475 deg
Eccentricity:    0.0011898
Arg of perigee:   000.2344 deg
Mean anomaly:     359.8730 deg
Mean motion:   12.53574431 rev/day
Decay rate:       -2.7e-07 rev/day^2
Epoch rev:           55382
Checksum:              284

Satellite: AO-10
Catalog number: 14129
Epoch time:      08303.67212325
Element set:    0581
Inclination:      026.0303 deg
RA of node:       188.4643 deg
Eccentricity:    0.5959656
Arg of perigee:   169.1540 deg
Mean anomaly:     213.8113 deg
Mean motion:   02.05869109 rev/day
Decay rate:      -1.39e-06 rev/day^2
Epoch rev:           19087
Checksum:              301

Satellite: UO-11
Catalog number: 14781
Epoch time:      08303.48689190
Element set:    0800
Inclination:      098.1403 deg
RA of node:       339.4312 deg
Eccentricity:    0.0009315
Arg of perigee:   007.7529 deg
Mean anomaly:     352.3847 deg
Mean motion:   14.79673276 rev/day
Decay rate:       2.68e-06 rev/day^2
Epoch rev:           32371
Checksum:              314

Satellite: RS-15
Catalog number: 23439
Epoch time:      08303.91383312
Element set:    0162
Inclination:      064.8160 deg
RA of node:       277.1861 deg
Eccentricity:    0.0145706
Arg of perigee:   096.6638 deg
Mean anomaly:     265.0892 deg
Mean motion:   11.27552540 rev/day
Decay rate:       -3.9e-07 rev/day^2
Epoch rev:           57015
Checksum:              304

Satellite: FO-29
Catalog number: 24278
Epoch time:      08303.78870711
Element set:     893
Inclination:      098.5772 deg
RA of node:       202.4009 deg
Eccentricity:    0.0350030
Arg of perigee:   227.0182 deg
Mean anomaly:     130.1124 deg
Mean motion:   13.52939525 rev/day
Decay rate:       -2.8e-07 rev/day^2
Epoch rev:           60259
Checksum:              295

Satellite: SO-33
Catalog number: 25509
Epoch time:      08303.32558680
Element set:     312
Inclination:      031.4303 deg
RA of node:       277.8876 deg
Eccentricity:    0.0354482
Arg of perigee:   120.0718 deg
Mean anomaly:     243.5537 deg
Mean motion:   14.28229775 rev/day
Decay rate:        5.3e-07 rev/day^2
Epoch rev:           52280
Checksum:              300

Satellite: AO-40
Catalog number: 26609
Epoch time:      08302.52735662
Element set:     145
Inclination:      008.0153 deg
RA of node:       052.3373 deg
Eccentricity:    0.7938941
Arg of perigee:   138.6704 deg
Mean anomaly:     321.8922 deg
Mean motion:   01.25586462 rev/day
Decay rate:      -2.88e-06 rev/day^2
Epoch rev:            3671
Checksum:              308

Satellite: VO-52
Catalog number: 28650
Epoch time:      08303.33973754
Element set:      68
Inclination:      097.7761 deg
RA of node:       006.1607 deg
Eccentricity:    0.0028249
Arg of perigee:   064.2611 deg
Mean anomaly:     296.1562 deg
Mean motion:   14.81513318 rev/day
Decay rate:        9.0e-07 rev/day^2
Epoch rev:           18846
Checksum:              312

Satellite: PO-63
Catalog number: 29712
Epoch time:      08304.21634562
Element set:     925
Inclination:      097.8608 deg
RA of node:       359.7684 deg
Eccentricity:    0.0013418
Arg of perigee:   306.2918 deg
Mean anomaly:     053.7053 deg
Mean motion:   14.80315837 rev/day
Decay rate:       5.37e-06 rev/day^2
Epoch rev:            9744
Checksum:              328

/EX
SB KEPS @ AMSAT  $ORB08304.D
Orbital Elements  08304.MICROS

HR AMSAT ORBITAL ELEMENTS FOR THE MICROSATS
FROM WA5QGD FORT WORTH,TX October 30, 2008
Send Subscribe/unsubscribe to KEPS at 
http://www.amsat.org/mailman/listinfo/keps
BID: ORB08304.D
TO ALL RADIO AMATEURS BT

Satellite: AO-16
Catalog number: 20439
Epoch time:      08303.52468610
Element set:     451
Inclination:      098.2482 deg
RA of node:       276.8372 deg
Eccentricity:    0.0011612
Arg of perigee:   133.4263 deg
Mean anomaly:     226.7890 deg
Mean motion:   14.31806684 rev/day
Decay rate:        2.4e-07 rev/day^2
Epoch rev:           98014
Checksum:              296

Satellite: LO-19
Catalog number: 20442
Epoch time:      08303.47988266
Element set:    0376
Inclination:      098.2155 deg
RA of node:       284.9068 deg
Eccentricity:    0.0012537
Arg of perigee:   131.0996 deg
Mean anomaly:     229.1285 deg
Mean motion:   14.32044208 rev/day
Decay rate:        2.5e-07 rev/day^2
Epoch rev:           98029
Checksum:              319

Satellite: AO-27
Catalog number: 22825
Epoch time:      08303.89445017
Element set:    0096
Inclination:      098.4035 deg
RA of node:       258.9836 deg
Eccentricity:    0.0007854
Arg of perigee:   218.3807 deg
Mean anomaly:     141.6821 deg
Mean motion:   14.29250265 rev/day
Decay rate:        7.0e-08 rev/day^2
Epoch rev:           78701
Checksum:              319

Satellite: IO-26
Catalog number: 22826
Epoch time:      08303.92502598
Element set:    0810
Inclination:      098.3976 deg
RA of node:       259.8637 deg
Eccentricity:    0.0008295
Arg of perigee:   216.3758 deg
Mean anomaly:     143.6888 deg
Mean motion:   14.29500302 rev/day
Decay rate:        1.9e-07 rev/day^2
Epoch rev:           78711
Checksum:              338

